Guadalajara Don Miguel, Mexico

8:50 AM CDT on June 23, 2017 (GMT -0500)
Guadalajara Don Miguel

Weather History for MMGL - December, 2012

Change the Weather History Date:

Sunday, December 9, 2012

  Actual Average Record
Temperature  
Mean Temperature 58 °F -  
Max Temperature 75 °F 73 °F 84 °F (1997)
Min Temperature 42 °F 38 °F 35 °F (1997)
Degree Days  
Heating Degree Days 6    
Growing Degree Days 8 (Base 50)    
Moisture  
Dew Point 37 °F    
Average Humidity 49    
Maximum Humidity 87    
Minimum Humidity 21    
Precipitation  
Precipitation 0.00 in - - ()
Sea Level Pressure  
Sea Level Pressure 30.07 in    
Wind  
Wind Speed 2 mph ()    
Max Wind Speed 12 mph    
Max Gust Speed -    
Visibility 9.0 miles    
Events      
Averages and records for this station are not official NWS values.
T = Trace of Precipitation, MM = Missing Value Source: Averaged Metar Reports

Daily Weather History Graph

Daily Weather History Graph

Search for Another Location

Airport or City:

Trip Planner

Search our weather history database for the weather conditions in past years. The results will help you decide how hot, cold, wet, or windy it might be!

Date:

Astronomy

Dec. 09, 2012 Rise Set
Actual Time 7:18 AM CST 6:13 PM CST
Civil Twilight 6:54 AM CST 6:37 PM CST
Nautical Twilight 6:26 AM CST 7:05 PM CST
Astronomical Twilight 5:59 AM CST 7:32 PM CST
Moon 3:16 AM CST (12/9) 3:02 PM CST (12/9)
Length of Visible Light 11h 43m
Length of Day
10h 55m
Waning Crescent, 18% of the Moon is Illuminated
Dec 9
Waning Crescent
Dec 13
New
Dec 19
First Quarter
Dec 28
Full
Jan 4
Last Quarter

Hourly Weather History & Observations

Time (CST) Temp. Windchill Dew Point Humidity Pressure Visibility Wind Dir Wind Speed Gust Speed Precip Events Conditions
12:47 AM 50.0 °F - 35.6 °F 58% 30.15 in 12.0 mi Calm Calm - N/A   Scattered Clouds
1:50 AM 48.2 °F - 39.2 °F 71% 30.13 in 12.0 mi SE 4.6 mph - N/A   Scattered Clouds
3:00 AM 46.4 °F - 37.4 °F 71% 29.90 in 10.0 mi Calm Calm - N/A   Scattered Clouds
3:53 AM 46.4 °F - 37.4 °F 71% 30.12 in 10.0 mi Calm Calm - N/A   Scattered Clouds
4:52 AM 44.6 °F 43.1 °F 39.2 °F 81% 30.12 in 10.0 mi SSW 3.5 mph - N/A   Scattered Clouds
5:54 AM 44.6 °F - 39.2 °F 81% 29.94 in 10.0 mi Calm Calm - N/A   Scattered Clouds
7:07 AM 46.4 °F - 39.2 °F 76% 30.15 in 8.0 mi Calm Calm - N/A   Scattered Clouds
7:56 AM 42.8 °F - 39.2 °F 87% 30.18 in 7.0 mi Calm Calm - N/A   Mostly Cloudy
8:54 AM 55.4 °F - 41.0 °F 58% 30.02 in 7.0 mi Calm Calm - N/A   Mostly Cloudy
9:53 AM 62.6 °F - 42.8 °F 48% 30.22 in 7.0 mi Calm Calm - N/A   Mostly Cloudy
10:52 AM 68.0 °F - 42.8 °F 40% 30.21 in 7.0 mi Calm Calm - N/A   Mostly Cloudy
11:55 AM 71.6 °F - 37.4 °F 29% 29.97 in 7.0 mi Calm Calm - N/A   Mostly Cloudy
12:53 PM 73.4 °F - 35.6 °F 25% 30.15 in 8.0 mi Calm Calm - N/A   Scattered Clouds
1:49 PM 75.2 °F - 33.8 °F 22% 30.11 in 8.0 mi SW 10.4 mph - N/A   Scattered Clouds
2:45 PM 75.2 °F - 33.8 °F 22% 29.86 in 8.0 mi WNW 10.4 mph - N/A   Scattered Clouds
3:43 PM 75.2 °F - 32.0 °F 21% 30.07 in 8.0 mi NW 3.5 mph - N/A   Scattered Clouds
4:51 PM 75.2 °F - 32.0 °F 21% 30.07 in 8.0 mi WNW 11.5 mph - N/A   Scattered Clouds
5:55 PM 71.6 °F - 33.8 °F 25% 29.90 in 10.0 mi WNW 6.9 mph - N/A   Clear
6:52 PM 66.2 °F - 35.6 °F 32% 30.10 in 10.0 mi Calm Calm - N/A   Clear
7:51 PM 62.6 °F - 35.6 °F 37% 30.13 in 10.0 mi WSW 4.6 mph - N/A   Clear
8:45 PM 60.8 °F - 35.6 °F 39% 29.98 in 10.0 mi WSW 5.8 mph - N/A   Clear
9:45 PM 57.2 °F - 37.4 °F 48% 30.19 in 10.0 mi NNE 3.5 mph - N/A   Clear
10:42 PM 55.4 °F - 37.4 °F 51% 30.20 in 10.0 mi Calm Calm - N/A   Clear
11:46 PM 53.6 °F - 39.2 °F 58% 29.93 in 10.0 mi Calm Calm - N/A   Clear